This demonstration page uses our WeatherBlox Daily Observations layout. Learn more.

Left ArrowRight Arrow

Hourly Observations for August 7, 2022

Temp ( °F °C ) Dew Point ( °F °C ) Humidity (%) Winds ( mph kmh ) Pressure ( in mb ) Visibility ( mi km ) Precip ( " mm )
12:53 am 00:53 Clear 73 22.8 71 21.7 94 94 Calm 30.16 1021 10 16 0.00 0.00
1:53 am 01:53 Clear 72 22.2 70 21.1 94 94 Calm 30.15 1021 10 16 0.00 0.00
2:53 am 02:53 Clear 71 21.7 69 20.6 94 94 Calm 30.15 1021 10 16 0.00 0.00
3:53 am 03:53 Clear 70 21.1 69 20.6 97 97 Calm 30.15 1021 10 16 0.00 0.00
4:53 am 04:53 Clear 70 21.1 68 20 93 93 Calm 30.14 1021 10 16 0.00 0.00
5:53 am 05:53 Clear 70 21.1 68 20 93 93 Calm 30.14 1021 9 14 0.00 0.00
6:53 am 06:53 Sunny with Mist and Fog 69 20.6 68 20 96 96 Calm 30.16 1021 5 8 0.00 0.00
7:53 am 07:53 Sunny 73 22.8 70 21.1 90 90 Calm 30.16 1021 10 16 0.00 0.00
8:53 am 08:53 Sunny 77 25 71 21.7 82 82 Calm 30.17 1022 10 16 0.00 0.00
9:53 am 09:53 Mostly Sunny 80 26.7 72 22.2 76 76 Calm 30.17 1022 10 16 0.00 0.00
10:53 am 10:53 Sunny 83 28.3 73 22.8 72 72 Calm 30.18 1022 10 16 0.00 0.00
11:53 am 11:53 Mostly Sunny 85 29.4 75 23.9 72 72 undefined N/A 30.17 1022 10 16 0.00 0.00
12:53 pm 12:53 Partly Cloudy 87 30.6 74 23.3 65 65 VRB 5 7 30.15 1021 10 16 0.00 0.00
1:53 pm 13:53 Mostly Sunny 88 31.1 75 23.9 66 66 Calm 30.13 1020 10 16 0.00 0.00
2:53 pm 14:53 Partly Cloudy 89 31.7 73 22.8 59 59 VRB 6 9 30.10 1019 10 16 0.00 0.00
3:53 pm 15:53 Mostly Sunny 90 32.2 72 22.2 56 56 VRB 5 7 30.08 1019 10 16 0.00 0.00
4:53 pm 16:53 Partly Cloudy 86 30 73 22.8 65 65 VRB 5 7 30.09 1019 10 16 0.00 0.00
5:53 pm 17:53 Sunny 87 30.6 73 22.8 63 63 VRB 5 7 30.07 1018 10 16 0.00 0.00
6:53 pm 18:53 Sunny 86 30 73 22.8 65 65 VRB 3 6 30.07 1018 10 16 0.00 0.00
7:53 pm 19:53 Mostly Sunny 84 28.9 74 23.3 72 72 Calm 30.06 1018 10 16 0.00 0.00
8:53 pm 20:53 Clear 79 26.1 74 23.3 85 85 Calm 30.06 1018 10 16 0.00 0.00
9:53 pm 21:53 Clear 78 25.6 73 22.8 85 85 VRB 5 7 30.08 1019 10 16 0.00 0.00
10:53 pm 22:53 Clear 77 25 69 20.6 77 77 Calm 30.10 1019 10 16 0.00 0.00
11:53 pm 23:53 Clear 74 23.3 70 21.1 88 88 Calm 30.10 1019 10 16 0.00 0.00

Powered by AerisWeather